Showing default

GALILEO 16 (26C), 41860

Orbit data source: Space-Track

GALILEO 16 (26C), 41860 is a payload satellite owned by GNSS Agency (ESA) that was launched on Thu, 17 Nov 2016 UTC via an ARIANE 5ES launch vehicle from the French Guiana (FRGUI). Payloads include a variety of satellites, spacecraft, and rockets equipped with specific instruments for various scientific and technological missions. These include communications satellites like Starlink; space stations such as the ISS; scientific satellites like the Hubble; Earth observation satellites from companies like Planet Labs, Umbra, and HawkEye 360; GPS; miniature CubeSats for education and research; and military/defense satellites.

Loading next visibility...
GALILEO 16 (26C) details
Identifier
41860, 2016-069B
Orbit
Active
Last TLE update4 days ago
Origin
Flag of ESAGNSS Agency (ESA)
ManufacturerOHB
MissionOperational Civil Navigation
Bus & MotorGALILEOSAT, AOCS
Mass738 kg wet, 700 kg dry
Launch date (UTC)
2016-11-17 (8 years ago)
Launch vehicle
ARIANE 5ES
Launch site
French Guiana (FRGUI)
Object type
Payload
Rocket body
Debris
Shape & HBRBox + 2 Pan, 14.71 m
Radar Cross Section9.223 m², Large (>1 m²)

Expand to show TLE details & history

TLE from 4 days ago
0 GALILEO 16 (26C)
1 41860U 16069B   24357.18307243  .00000014  00000-0  00000+0 0  9994
2 41860  55.1803 116.1002 0001449  10.3539 349.6205  1.70474816 50410
Epoch: 2024-12-22T04:23Z
Definitive object data (Epoch: 2024-12-22T04:23:37.457Z)
Latitude0.00002°
Longitude-41.03726°
Altitude23,218.131 km
Speed3.67 km/s
True Right ascension07h 44m 22s
True Declination0° 00' 00"
Sunlit
Object was in daylight at TLE epoch
Visualization TLE readout
Latitude-10.46519°
Longitude146.20495°
Altitude23,228.679 km
Speed3.669 km/s
Apparent Right ascension20h 50m 44s
Apparent Declination-17° 27' 60"
Sunlit
Object is in daylight
Visualization observer readout
Local Sidereal Time13:50:21
Azimuth94.397° ESE
Elevation-22.527°
Doppler factor1
Orbital elements
Apogee altitude23,226.38 km
Perigee altitude23,217.801 km
Semi-major axis29,600.227 km
Eccentricity0.0001449
Inclination55.1803°
RAAN116.1002°
Arg. of periapsis10.3539°
True anomaly349.61751°
Mean anomaly349.6205°
Eccentric anomaly349.619°
Mean motion0.42619 °/min
BSTARUnknown
Orbital period844.7 mins
Loading maneuver chart data...
Loading historical data...
Loading historical data...
Loading historical data...
Loading historical data...
Loading historical data...
Loading historical data...
Loading historical data...

GALILEO 16 (26C) Visibility forecast

Observer location: undefined°, undefined

Span
Click to sort rows by Start time (UTC) header in descending order
Start Az.
Max El. time (UTC)
Max El. Az.
Max El.
End time (UTC)
End Az.
247 mins2024-12-27 10:21:30.597Z223.996° SW2024-12-27 14:28:30.597Z341.769° N43.113°2024-12-27 14:28:30.597Z341.769° N
|